Location: Recife
(8.0585°S, 34.8848°W)
Time: 22:35:56
(UTC-03:00)

Vanguard 1 Rocket - Pass Details

Date: 23 April 2026
Orbit: 655 x 4212 km, 34.3° (Epoch: 12 May)

Event Time Altitude Azimuth Distance (km) Brightness Sun altitude
Rises 06:43:44 0° 276° (W) 4,420 10.4 18.8°
Reaches altitude 10° 06:48:14 10° 259° (W) 2,897 9.5 19.9°
Maximum altitude 06:52:31 18° 217° (SW) 1,950 8.8 20.9°
Drops below altitude 10° 06:55:55 10° 172° (S) 2,203 9.4 21.7°
Sets 06:58:43 0° 151° (SSE) 2,999 10.2 22.4°
